| time (UTC) | temp C | wind direction | speed KPH | gust KPH | rain 1hr cm | rain 24hr cm | rain mn cm | humidity % | barometer mb |
| 20260905123519 | 32 | 245 | 40.2 | 57.9 | 0.00 | 0.00 | 0.00 | 38 | 1010.5 |
| 20260905122541 | 32 | 225 | 41.8 | 53.1 | 0.00 | 0.00 | 0.00 | 38 | 1010.7 |
| 20260905121519 | 32 | 223 | 43.5 | 61.2 | 0.00 | 0.00 | 0.00 | 38 | 1010.7 |
| 20260905120521 | 33 | 214 | 35.4 | 54.7 | 0.00 | 0.00 | 0.00 | 37 | 1010.9 |
| 20260905115519 | 32 | 221 | 32.2 | 45.1 | 0.00 | 0.00 | 0.00 | 39 | 1010.9 |
| 20260905114520 | 32 | 212 | 19.3 | 40.2 | 0.00 | 0.00 | 0.00 | 40 | 1011.0 |
| 20260905113516 | 31 | 214 | 24.1 | 37.0 | 0.00 | 0.00 | 0.00 | 42 | 1011.1 |
| 20260905112521 | 30 | 198 | 20.9 | 27.4 | 0.00 | 0.00 | 0.00 | 43 | 1011.2 |
| 20260905111520 | 31 | 215 | 27.4 | 41.8 | 0.00 | 0.00 | 0.00 | 42 | 1011.3 |
| 20260905110542 | 30 | 211 | 27.4 | 35.4 | 0.00 | 0.00 | 0.00 | 44 | 1011.2 |
| 20260905105519 | 30 | 208 | 41.8 | 56.3 | 0.00 | 0.00 | 0.00 | 42 | 1011.1 |
| 20260905104541 | 30 | 190 | 29.0 | 45.1 | 0.00 | 0.00 | 0.00 | 43 | 1011.2 |
| 20260905103520 | 30 | 217 | 37.0 | 49.9 | 0.00 | 0.00 | 0.00 | 43 | 1011.3 |
| 20260905102517 | 30 | 229 | 38.6 | 49.9 | 0.00 | 0.00 | 0.00 | 44 | 1011.4 |
| 20260905101520 | 30 | 220 | 41.8 | 70.8 | 0.00 | 0.00 | 0.00 | 43 | 1011.6 |
| 20260905100516 | 30 | 200 | 57.9 | 77.2 | 0.00 | 0.00 | 0.00 | 42 | 1011.5 |
| 20260905095521 | 30 | 214 | 43.5 | 61.2 | 0.00 | 0.00 | 0.00 | 42 | 1011.6 |
| 20260905094541 | 31 | 232 | 37.0 | 51.5 | 0.00 | 0.00 | 0.00 | 42 | 1011.6 |
| 20260905093519 | 31 | 219 | 45.1 | 67.6 | 0.00 | 0.00 | 0.00 | 42 | 1011.7 |
| 20260905092520 | 30 | 198 | 41.8 | 62.8 | 0.00 | 0.00 | 0.00 | 43 | 1011.7 |
| 20260905085536 | 30 | 202 | 46.7 | 72.4 | 0.00 | 0.00 | 0.00 | 45 | 1012.1 |
| 20260905084518 | 29 | 202 | 46.7 | 77.2 | 0.00 | 0.00 | 0.00 | 46 | 1012.1 |
| 20260905083537 | 28 | 198 | 54.7 | 80.5 | 0.00 | 0.00 | 0.00 | 46 | 1012.2 |
| 20260905082522 | 28 | 204 | 48.3 | 57.9 | 0.00 | 0.00 | 0.00 | 48 | 1012.3 |
| 20260905081519 | 28 | 200 | 45.1 | 61.2 | 0.00 | 0.00 | 0.00 | 48 | 1012.4 |
| 20260905080517 | 27 | 196 | 38.6 | 54.7 | 0.00 | 0.00 | 0.00 | 50 | 1012.5 |
| 20260905075520 | 27 | 206 | 48.3 | 69.2 | 0.00 | 0.00 | 0.00 | 50 | 1012.7 |
| 20260905074517 | 27 | 199 | 51.5 | 70.8 | 0.00 | 0.00 | 0.00 | 50 | 1012.7 |
| 20260905073516 | 26 | 204 | 51.5 | 66.0 | 0.00 | 0.00 | 0.00 | 51 | 1012.8 |
| 20260905072517 | 26 | 188 | 49.9 | 67.6 | 0.00 | 0.00 | 0.00 | 51 | 1012.9 |
| 20260905071537 | 26 | 204 | 45.1 | 69.2 | 0.00 | 0.00 | 0.00 | 53 | 1012.9 |
| 20260905070518 | 25 | 204 | 45.1 | 57.9 | 0.00 | 0.00 | 0.00 | 54 | 1012.9 |
| 20260905065518 | 25 | 188 | 43.5 | 59.5 | 0.00 | 0.00 | 0.00 | 55 | 1013.0 |
| 20260905064520 | 25 | 199 | 45.1 | 67.6 | 0.00 | 0.00 | 0.00 | 56 | 1013.1 |
| 20260905063516 | 23 | 197 | 49.9 | 59.5 | 0.00 | 0.00 | 0.00 | 58 | 1013.1 |
| 20260905062540 | 23 | 199 | 43.5 | 64.4 | 0.00 | 0.00 | 0.00 | 60 | 1013.0 |
| 20260905061516 | 23 | 210 | 41.8 | 53.1 | 0.00 | 0.00 | 0.00 | 61 | 1013.1 |
| 20260905060536 | 22 | 197 | 40.2 | 53.1 | 0.00 | 0.00 | 0.00 | 61 | 1013.1 |
| 20260905055537 | 22 | 201 | 22.5 | 35.4 | 0.00 | 0.00 | 0.00 | 62 | 1013.1 |
| 20260905054516 | 21 | 202 | 16.1 | 29.0 | 0.00 | 0.00 | 0.00 | 63 | 1013.2 |
| 20260905053517 | 21 | 188 | 19.3 | 27.4 | 0.00 | 0.00 | 0.00 | 64 | 1013.2 |
| 20260905052521 | 21 | 166 | 14.5 | 24.1 | 0.00 | 0.00 | 0.00 | 64 | 1013.2 |
| 20260905051517 | 21 | 161 | 9.7 | 16.1 | 0.00 | 0.00 | 0.00 | 65 | 1013.1 |
| 20260905050517 | 20 | 161 | 16.1 | 20.9 | 0.00 | 0.00 | 0.00 | 65 | 1013.1 |
| 20260905045517 | 20 | 190 | 17.7 | 27.4 | 0.00 | 0.00 | 0.00 | 65 | 1013.2 |
| 20260905044517 | 20 | 181 | 17.7 | 27.4 | 0.00 | 0.00 | 0.00 | 66 | 1013.1 |
| 20260905043517 | 19 | 180 | 25.7 | 32.2 | 0.00 | 0.00 | 0.00 | 67 | 1013.2 |
| 20260905042517 | 18 | 178 | 22.5 | 27.4 | 0.00 | 0.00 | 0.00 | 67 | 1013.1 |
| 20260905041559 | 18 | 189 | 14.5 | 19.3 | 0.00 | 0.00 | 0.00 | 69 | 1013.0 |
| 20260905040517 | 18 | 186 | 8.0 | 11.3 | 0.00 | 0.00 | 0.00 | 70 | 1012.9 |
| 20260905035519 | 17 | 167 | 8.0 | 14.5 | 0.00 | 0.00 | 0.00 | 72 | 1012.9 |
| 20260905034539 | 17 | 116 | 3.2 | 9.7 | 0.00 | 0.00 | 0.00 | 72 | 1012.8 |
| 20260905033519 | 17 | 175 | 11.3 | 14.5 | 0.00 | 0.00 | 0.00 | 72 | 1012.8 |
| 20260905032537 | 17 | 181 | 11.3 | 16.1 | 0.00 | 0.00 | 0.00 | 72 | 1012.9 |
| 20260905031516 | 17 | 208 | 6.4 | 11.3 | 0.00 | 0.00 | 0.00 | 71 | 1012.9 |
| 20260905030537 | 18 | 262 | 9.7 | 14.5 | 0.00 | 0.00 | 0.00 | 71 | 1012.9 |
| 20260905025517 | 17 | 212 | 12.9 | 17.7 | 0.00 | 0.00 | 0.00 | 72 | 1013.0 |
| 20260905024517 | 17 | 238 | 4.8 | 9.7 | 0.00 | 0.00 | 0.00 | 72 | 1013.0 |
| 20260905023557 | 17 | 245 | 6.4 | 14.5 | 0.00 | 0.00 | 0.00 | 73 | 1013.1 |
| 20260905022517 | 17 | 178 | 14.5 | 19.3 | 0.00 | 0.00 | 0.00 | 73 | 1013.0 |
| 20260905021537 | 17 | 174 | 11.3 | 17.7 | 0.00 | 0.00 | 0.00 | 74 | 1013.0 |
| 20260905020521 | 17 | 167 | 8.0 | 14.5 | 0.00 | 0.00 | 0.00 | 74 | 1013.0 |
| 20260905015519 | 17 | 167 | 9.7 | 17.7 | 0.00 | 0.00 | 0.00 | 74 | 1013.0 |
| 20260905014517 | 17 | 198 | 11.3 | 16.1 | 0.00 | 0.00 | 0.00 | 74 | 1013.0 |
| 20260905013517 | 17 | 185 | 17.7 | 24.1 | 0.00 | 0.00 | 0.00 | 76 | 1013.1 |
| 20260905012517 | 17 | 179 | 11.3 | 17.7 | 0.00 | 0.00 | 0.00 | 77 | 1013.2 |
| 20260905011518 | 17 | 179 | 8.0 | 11.3 | 0.00 | 0.00 | 0.00 | 77 | 1013.1 |
| 20260905010518 | 17 | 166 | 11.3 | 17.7 | 0.00 | 0.00 | 0.00 | 77 | 1013.2 |
| 20260905005518 | 18 | 151 | 9.7 | 22.5 | 0.00 | 0.00 | 0.00 | 76 | 1013.2 |
| 20260905004516 | 18 | 150 | 9.7 | 11.3 | 0.00 | 0.00 | 0.00 | 76 | 1013.2 |
| 20260905003537 | 18 | 172 | 11.3 | 14.5 | 0.00 | 0.00 | 0.00 | 76 | 1013.2 |
| 20260905002521 | 18 | 184 | 11.3 | 17.7 | 0.00 | 0.00 | 0.00 | 76 | 1013.3 |
| 20260905001537 | 18 | 207 | 4.8 | 8.0 | 0.00 | 0.00 | 0.00 | 77 | 1013.3 |
| 20260905000539 | 18 | 183 | 6.4 | 8.0 | 0.00 | 0.00 | 0.00 | 77 | 1013.3 |
| 20260904235517 | 18 | 199 | 1.6 | 6.4 | 0.00 | 0.00 | 0.00 | 77 | 1013.4 |
| 20260904234517 | 18 | 179 | 9.7 | 11.3 | 0.00 | 0.00 | 0.00 | 77 | 1013.3 |
| 20260904233517 | 18 | 219 | 9.7 | 14.5 | 0.00 | 0.00 | 0.00 | 76 | 1013.2 |
| 20260904232521 | 18 | 253 | 4.8 | 8.0 | 0.00 | 0.00 | 0.00 | 76 | 1013.1 |
| 20260904231517 | 19 | 201 | 4.8 | 9.7 | 0.00 | 0.00 | 0.00 | 75 | 1013.2 |
| 20260904230517 | 19 | 209 | 9.7 | 14.5 | 0.00 | 0.00 | 0.00 | 74 | 1013.4 |
| 20260904225518 | 19 | 268 | 4.8 | 9.7 | 0.00 | 0.00 | 0.00 | 74 | 1013.5 |
| 20260904224537 | 19 | 278 | 8.0 | 11.3 | 0.00 | 0.00 | 0.00 | 74 | 1013.5 |
| 20260904223517 | 19 | 239 | 9.7 | 12.9 | 0.00 | 0.00 | 0.00 | 74 | 1013.5 |
| 20260904222522 | 20 | 251 | 6.4 | 9.7 | 0.00 | 0.00 | 0.00 | 73 | 1013.5 |
| 20260904221538 | 20 | 223 | 14.5 | 17.7 | 0.00 | 0.00 | 0.00 | 71 | 1013.3 |
| 20260904220518 | 20 | 252 | 11.3 | 14.5 | 0.00 | 0.00 | 0.00 | 72 | 1013.5 |
| 20260904215518 | 20 | 250 | 9.7 | 12.9 | 0.00 | 0.00 | 0.00 | 72 | 1013.5 |
| 20260904214517 | 20 | 265 | 8.0 | 11.3 | 0.00 | 0.00 | 0.00 | 72 | 1013.6 |
| 20260904213518 | 20 | 258 | 9.7 | 12.9 | 0.00 | 0.00 | 0.00 | 72 | 1013.7 |
| 20260904212521 | 20 | 228 | 12.9 | 16.1 | 0.00 | 0.00 | 0.00 | 71 | 1013.6 |
| 20260904211518 | 20 | 227 | 8.0 | 12.9 | 0.00 | 0.00 | 0.00 | 71 | 1013.7 |
| 20260904210517 | 20 | 189 | 9.7 | 14.5 | 0.00 | 0.00 | 0.00 | 70 | 1013.6 |
| 20260904205518 | 21 | 184 | 8.0 | 11.3 | 0.00 | 0.00 | 0.00 | 69 | 1013.5 |
| 20260904204517 | 21 | 151 | 8.0 | 11.3 | 0.00 | 0.00 | 0.00 | 67 | 1013.5 |
| 20260904203517 | 21 | 172 | 4.8 | 11.3 | 0.00 | 0.00 | 0.00 | 67 | 1013.6 |
| 20260904202517 | 21 | 240 | 1.6 | 8.0 | 0.00 | 0.00 | 0.00 | 66 | 1013.6 |
| 20260904201538 | 21 | 28 | 0.0 | 4.8 | 0.00 | 0.00 | 0.00 | 66 | 1013.5 |
| 20260904200538 | 21 | 245 | 1.6 | 11.3 | 0.00 | 0.00 | 0.00 | 66 | 1013.5 |
| 20260904195540 | 21 | 0.0 | 0.0 | 0.00 | 0.00 | 0.00 | 66 | 1013.5 | |
| 20260904194518 | 22 | 157 | 1.6 | 6.4 | 0.00 | 0.00 | 0.00 | 65 | 1013.5 |
| 20260904193518 | 22 | 164 | 8.0 | 11.3 | 0.00 | 0.00 | 0.00 | 64 | 1013.5 |
| 20260904192519 | 22 | 164 | 6.4 | 8.0 | 0.00 | 0.00 | 0.00 | 63 | 1013.5 |
| 20260904191518 | 22 | 207 | 1.6 | 6.4 | 0.00 | 0.00 | 0.00 | 63 | 1013.4 |
| 20260904190519 | 22 | 166 | 1.6 | 4.8 | 0.00 | 0.00 | 0.00 | 63 | 1013.6 |
| 20260904185537 | 22 | 155 | 8.0 | 14.5 | 0.00 | 0.00 | 0.00 | 63 | 1013.6 |
| 20260904184518 | 22 | 145 | 1.6 | 8.0 | 0.00 | 0.00 | 0.00 | 66 | 1013.7 |
| 20260904183516 | 22 | 0.0 | 0.0 | 0.00 | 0.00 | 0.00 | 66 | 1013.7 | |
| 20260904182517 | 22 | 251 | 0.0 | 4.8 | 0.00 | 0.00 | 0.00 | 65 | 1013.7 |
| 20260904181517 | 22 | 127 | 4.8 | 9.7 | 0.00 | 0.00 | 0.00 | 65 | 1013.7 |
| 20260904180522 | 22 | 26 | 1.6 | 4.8 | 0.00 | 0.00 | 0.00 | 65 | 1013.6 |
| 20260904175517 | 22 | 115 | 8.0 | 11.3 | 0.00 | 0.00 | 0.00 | 65 | 1013.6 |
| 20260904174537 | 23 | 195 | 0.0 | 4.8 | 0.00 | 0.00 | 0.00 | 63 | 1013.6 |
| 20260904173518 | 22 | 110 | 4.8 | 8.0 | 0.00 | 0.00 | 0.00 | 65 | 1013.5 |
| 20260904172518 | 23 | 27 | 1.6 | 8.0 | 0.00 | 0.00 | 0.00 | 65 | 1013.4 |
| 20260904171557 | 23 | 85 | 0.0 | 4.8 | 0.00 | 0.00 | 0.00 | 63 | 1013.3 |
| 20260904170518 | 23 | 337 | 1.6 | 12.9 | 0.00 | 0.00 | 0.00 | 61 | 1013.1 |
| 20260904165517 | 24 | 0.0 | 0.0 | 0.00 | 0.00 | 0.00 | 61 | 1013.0 | |
| 20260904164518 | 25 | 12 | 1.6 | 6.4 | 0.00 | 0.00 | 0.00 | 58 | 1013.0 |
| 20260904163517 | 25 | 19 | 0.0 | 4.8 | 0.00 | 0.00 | 0.00 | 56 | 1013.1 |
| 20260904162519 | 26 | 226 | 1.6 | 8.0 | 0.00 | 0.00 | 0.00 | 53 | 1013.2 |
| 20260904161517 | 26 | 218 | 4.8 | 9.7 | 0.00 | 0.00 | 0.00 | 51 | 1013.1 |
| 20260904160518 | 26 | 278 | 3.2 | 8.0 | 0.00 | 0.00 | 0.00 | 52 | 1013.3 |
| 20260904155518 | 26 | 257 | 1.6 | 6.4 | 0.00 | 0.00 | 0.00 | 53 | 1013.3 |
| 20260904154519 | 25 | 163 | 8.0 | 12.9 | 0.00 | 0.00 | 0.00 | 53 | 1013.4 |
| 20260904153517 | 24 | 134 | 9.7 | 17.7 | 0.00 | 0.00 | 0.00 | 56 | 1013.4 |
| 20260904152519 | 25 | 213 | 32.2 | 53.1 | 0.00 | 0.00 | 0.00 | 55 | 1013.5 |
| 20260904151517 | 26 | 219 | 14.5 | 22.5 | 0.00 | 0.00 | 0.00 | 48 | 1013.3 |
| 20260904150518 | 26 | 289 | 6.4 | 12.9 | 0.00 | 0.00 | 0.00 | 46 | 1013.4 |
| 20260904145518 | 27 | 337 | 8.0 | 12.9 | 0.00 | 0.00 | 0.00 | 45 | 1013.4 |
| 20260904144518 | 27 | 321 | 6.4 | 11.3 | 0.00 | 0.00 | 0.00 | 44 | 1013.3 |
| 20260904143538 | 27 | 315 | 8.0 | 11.3 | 0.00 | 0.00 | 0.00 | 45 | 1013.3 |
| 20260904142518 | 27 | 351 | 8.0 | 11.3 | 0.00 | 0.00 | 0.00 | 44 | 1013.3 |
| 20260904141518 | 27 | 333 | 11.3 | 17.7 | 0.00 | 0.00 | 0.00 | 43 | 1013.3 |
| 20260904140519 | 28 | 313 | 6.4 | 14.5 | 0.00 | 0.00 | 0.00 | 43 | 1013.4 |
| 20260904135537 | 27 | 172 | 6.4 | 12.9 | 0.00 | 0.00 | 0.00 | 42 | 1013.5 |
| 20260904134538 | 27 | 263 | 9.7 | 14.5 | 0.00 | 0.00 | 0.00 | 43 | 1013.5 |
| 20260904133518 | 27 | 283 | 17.7 | 30.6 | 0.00 | 0.00 | 0.00 | 43 | 1013.4 |
| 20260904132518 | 28 | 313 | 16.1 | 24.1 | 0.00 | 0.00 | 0.00 | 42 | 1013.4 |
| 20260904131537 | 28 | 344 | 11.3 | 22.5 | 0.00 | 0.00 | 0.00 | 42 | 1013.4 |
| 20260904130522 | 28 | 293 | 16.1 | 37.0 | 0.00 | 0.00 | 0.00 | 43 | 1013.5 |
| 20260904125539 | 28 | 296 | 24.1 | 43.5 | 0.00 | 0.00 | 0.00 | 44 | 1013.6 |
| 20260904124516 | 28 | 271 | 32.2 | 46.7 | 0.00 | 0.00 | 0.00 | 43 | 1013.7 |